Simultaneous Nadir Overpasses (SNOs) Predictions

Prediction of SNOs between GOES-16 and LANDSAT-8 Satellite Orbit:

Table of predicted SNOs for the next 14.0 days since TLE Epoch: 5/16/2020
Index Date Time (GOES-16) GOES-16 Lat,Lon LANDSAT-8 Lat,Lon Distance(km) Time Diff (sec)
1 05/16/2020 15:18:07 0.02, -75.21 0.36, -76.89 190.07 80
2 05/18/2020 15:08:37 0.02, -75.23 -0.24, -73.94 147.10 80
3 05/19/2020 03:30:02 -0.02, -75.21 -0.84, -79.13 446.19 80
4 05/20/2020 14:56:28 0.02, -75.25 -0.88, -70.99 484.50 80
5 05/21/2020 03:17:53 -0.02, -75.23 -0.21, -76.19 108.76 80
6 05/23/2020 03:03:04 -0.01, -75.25 0.39, -73.23 228.66 80
7 05/23/2020 15:24:21 0.01, -75.29 0.68, -78.40 354.30 80
8 05/25/2020 15:12:13 0.00, -75.31 0.06, -75.46 17.21 80
9 05/27/2020 15:02:46 -0.00, -75.34 -0.60, -72.52 320.25 80
10 05/28/2020 03:24:11 0.00, -75.32 -0.51, -77.72 272.72 80




NCC Satellite Simultaneous Nadir Overpasses (SNOs) Prediction Service
